1998-067NW

Last updated on Mon Oct 22 2018 01:00:45 GMT+0100 (British Summer Time)

1 43548U 98067NW 18294.48638340 .00008449 00000-0 12522-3 0 9994 2 43548 51.6382 108.3247 0005351 316.5911 43.4659 15.56151407 15615
UTC large
Height (km)
Speed (km/s)
/
Latitude / Longitude
Inclination (degrees)
Orbital Period (minutes)
Azimuth
Elevation
Range (km)
Doppler Factor

Next 0 passes for location: London (51.5072 / 0.1276)

Sorry there are no passes over London.